Weather History for Park Rapids, MN

Change the Weather History Date:

Wednesday, January 18, 2012

  Actual Average Record
Temperature  
Mean Temperature -4 °F -  
Max Temperature 8 °F 17 °F 43 °F (1981)
Min Temperature -17 °F -4 °F -37 °F (1950)
Degree Days  
Heating Degree Days 68    
Moisture  
Dew Point -8 °F    
Average Humidity 77    
Maximum Humidity 85    
Minimum Humidity 66    
Precipitation  
Precipitation 0.01 in - - ()
Sea Level Pressure  
Sea Level Pressure 29.89 in    
Wind  
Wind Speed 7 mph (North)    
Max Wind Speed 22 mph    
Max Gust Speed 31 mph    
Visibility 7 miles    
Events Snow    
Averages and records for this station are not official NWS values.
T = Trace of Precipitation, MM = Missing Value Source: NWS Daily Summary

Daily Weather History Graph

Daily Weather History Graph

Search for Another Location

Airport:

Trip Planner

Search our weather history database for the weather conditions in past years. The results will help you decide how hot, cold, wet, or windy it might be!

Date:

Astronomy

Jan. 18, 2012 Rise Set
Actual Time 7:59 AM CST 5:02 PM CST
Civil Twilight 7:25 AM CST 5:36 PM CST
Nautical Twilight 6:48 AM CST 6:13 PM CST
Astronomical Twilight 6:11 AM CST 6:49 PM CST
Moon 3:31 AM CST (1/18) 12:39 PM CST (1/18)
Length of Visible Light 10h 10m
Length of Day
9h 02m
Waning Crescent, 24% of the Moon is Illuminated
Jan 18
Waning Crescent
Jan 23
New
Jan 30
First Quarter
Feb 7
Full
Feb 14
Last Quarter

Hourly Weather History & Observations

Time (CST) Temp. Windchill Dew Point Humidity Pressure Visibility Wind Dir Wind Speed Gust Speed Precip Events Conditions
12:53 AM -11.0 °F - -15.0 °F 83% 30.22 in 10.0 mi Calm Calm - N/A   Mostly Cloudy
1:53 AM -9.9 °F - -14.1 °F 82% 30.19 in 10.0 mi Calm Calm - N/A   Overcast
2:53 AM -9.9 °F -19.2 °F -14.1 °F 82% 30.16 in 10.0 mi ESE 3.5 mph - N/A   Clear
3:53 AM -9.0 °F -23.8 °F -14.1 °F 79% 30.12 in 10.0 mi ESE 6.9 mph - N/A   Overcast
4:53 AM -8.0 °F -22.5 °F -13.0 °F 79% 30.08 in 10.0 mi East 6.9 mph - N/A   Partly Cloudy
5:53 AM -6.0 °F -23.6 °F -11.0 °F 79% 30.02 in 10.0 mi ESE 10.4 mph - N/A   Scattered Clouds
6:53 AM -5.1 °F -20.4 °F -9.9 °F 80% 29.98 in 10.0 mi ESE 8.1 mph - N/A   Scattered Clouds
7:53 AM -5.1 °F -19.1 °F -9.0 °F 83% 29.94 in 10.0 mi ESE 6.9 mph - N/A   Clear
8:53 AM -4.0 °F -16.3 °F -8.0 °F 83% 29.91 in 10.0 mi ESE 5.8 mph - N/A   Partly Cloudy
9:53 AM -0.9 °F -14.1 °F -6.0 °F 79% 29.87 in 6.0 mi SE 6.9 mph - N/A   Haze
10:08 AM -0.4 °F -15.7 °F -4.0 °F 85% 29.72 in 10.0 mi SE 9.2 mph - N/A   Mostly Cloudy
10:53 AM 3.0 °F -13.3 °F -0.9 °F 84% 29.81 in 7.0 mi SSE 11.5 mph - N/A   Mostly Cloudy
11:09 AM 3.2 °F -13.1 °F -0.4 °F 85% 29.67 in 8.0 mi SSE 11.5 mph - N/A   Mostly Cloudy
11:53 AM 6.1 °F -0.9 °F 1.0 °F 80% 29.78 in 4.0 mi SSW 3.5 mph - N/A   Haze
12:53 PM 7.0 °F - 1.0 °F 77% 29.78 in 3.0 mi Calm Calm - 0.00 in Snow Light Snow
1:40 PM 8.6 °F -1.3 °F 1.4 °F 73% 29.64 in 1.8 mi North 5.8 mph - 0.00 in Snow Light Snow
1:53 PM 8.1 °F -3.2 °F 1.9 °F 76% 29.75 in 0.8 mi North 6.9 mph - 0.00 in Snow Light Snow
2:07 PM 8.6 °F -1.3 °F 3.2 °F 79% 29.63 in 0.5 mi NNW 5.8 mph - 0.00 in Snow Snow
2:43 PM 6.8 °F -9.3 °F 1.4 °F 79% 29.64 in 1.0 mi North 12.7 mph - 0.01 in Snow Light Snow
2:53 PM 5.0 °F -10.0 °F 1.0 °F 84% 29.77 in 0.8 mi North 10.4 mph - 0.01 in Snow Light Snow
3:03 PM 5.0 °F -10.0 °F -0.4 °F 78% 29.65 in 1.8 mi NNW 10.4 mph - 0.00 in Snow Light Snow
3:08 PM 5.0 °F -10.0 °F -0.4 °F 78% 29.65 in 3.0 mi NNW 10.4 mph - 0.00 in Snow Light Snow
3:53 PM 3.9 °F -15.6 °F -4.0 °F 70% 29.82 in 5.0 mi NW 17.3 mph - 0.00 in   Overcast
4:22 PM 1.4 °F -19.9 °F -7.6 °F 66% 29.71 in 4.0 mi NNW 19.6 mph 27.6 mph 0.00 in   Overcast
4:53 PM -2.0 °F -25.5 °F -11.0 °F 66% 29.88 in 4.0 mi NNW 21.9 mph 31.1 mph 0.00 in   Overcast
5:53 PM -6.0 °F -23.6 °F -14.1 °F 68% 29.92 in 10.0 mi NNW 10.4 mph - 0.00 in   Clear
6:53 PM -8.0 °F -31.0 °F -16.1 °F 68% 29.96 in 10.0 mi NW 17.3 mph 25.3 mph N/A   Clear
7:53 PM -9.9 °F -32.1 °F -17.0 °F 71% 29.99 in 10.0 mi WNW 15.0 mph - N/A   Clear
8:53 PM -14.1 °F -36.6 °F -20.0 °F 75% 30.03 in 10.0 mi NW 13.8 mph - N/A   Clear
9:53 PM -15.0 °F -37.7 °F -22.0 °F 71% 30.04 in 10.0 mi NW 13.8 mph - N/A   Clear
10:53 PM -15.0 °F -36.8 °F -23.1 °F 67% 30.05 in 10.0 mi NW 12.7 mph - N/A   Clear
11:53 PM -17.0 °F -39.3 °F -23.1 °F 74% 30.07 in 10.0 mi NW 12.7 mph - N/A   Clear